Location: Bratislava
(48.1500°N, 17.1170°E)
Time: 06:44:47
(UTC+02:00)

N. Korean satellite - Pass Details

Date: 28 January 2019
Orbit: 457 x 508 km, 97.2° (Epoch: 18 April)

Event Time Altitude Azimuth Distance (km) Brightness Sun altitude
Rises 17:54:21 0° 193° (SSW) 2,591 10.6 -11.8°
Reaches altitude 10° 17:56:39 10° 206° (SSW) 1,718 9.9 -12.1°
Maximum altitude 17:59:50 27° 265° (W) 1,013 9.1 -12.7°
Drops below altitude 10° 18:03:04 10° 325° (NW) 1,739 9.7 -13.2°
Sets 18:05:25 0° 337° (NNW) 2,631 10.4 -13.6°
